| time (UTC) | temp F | wind direction | speed MPH | gust MPH | rain 1hr in | rain 24hr in | rain mn in | humidity % | barometer mb |
| 20260510153844 | 65 | 228 | 0.0 | 4.0 | 0.00 | 0.00 | 0.00 | 79 | 1011.6 |
| 20260510153351 | 64 | 228 | 1.0 | 9.0 | 0.00 | 0.00 | 0.00 | 79 | 1011.6 |
| 20260510152858 | 64 | 228 | 4.0 | 9.0 | 0.00 | 0.00 | 0.00 | 80 | 1011.7 |
| 20260510152346 | 63 | 255 | 2.0 | 6.0 | 0.00 | 0.00 | 0.00 | 81 | 1011.7 |
| 20260510151910 | 63 | 254 | 2.0 | 6.0 | 0.00 | 0.00 | 0.00 | 82 | 1011.8 |
| 20260510151354 | 62 | 253 | 1.0 | 6.0 | 0.00 | 0.00 | 0.00 | 83 | 1011.8 |
| 20260510150922 | 62 | 248 | 2.0 | 5.0 | 0.00 | 0.00 | 0.00 | 83 | 1011.8 |
| 20260510150402 | 61 | 248 | 2.0 | 5.0 | 0.00 | 0.00 | 0.00 | 83 | 1011.8 |
| 20260510145854 | 61 | 248 | 1.0 | 5.0 | 0.00 | 0.00 | 0.00 | 83 | 1011.8 |
| 20260510145403 | 61 | 248 | 2.0 | 5.0 | 0.00 | 0.00 | 0.00 | 83 | 1011.7 |
| 20260510144847 | 61 | 248 | 0.0 | 3.0 | 0.00 | 0.00 | 0.00 | 83 | 1011.8 |
| 20260510144354 | 61 | 248 | 0.0 | 6.0 | 0.00 | 0.00 | 0.00 | 83 | 1011.8 |
| 20260510143901 | 60 | 248 | 2.0 | 6.0 | 0.00 | 0.00 | 0.00 | 83 | 1012.0 |
| 20260510143347 | 60 | 251 | 2.0 | 6.0 | 0.00 | 0.00 | 0.00 | 83 | 1012.1 |
| 20260510142853 | 60 | 252 | 1.0 | 5.0 | 0.00 | 0.00 | 0.00 | 84 | 1012.1 |
| 20260510142420 | 60 | 253 | 2.0 | 5.0 | 0.00 | 0.00 | 0.00 | 84 | 1012.1 |
| 20260510141844 | 60 | 253 | 1.0 | 4.0 | 0.00 | 0.00 | 0.00 | 84 | 1012.0 |
| 20260510141350 | 60 | 253 | 1.0 | 5.0 | 0.00 | 0.00 | 0.00 | 85 | 1012.1 |
| 20260510140857 | 60 | 253 | 2.0 | 5.0 | 0.00 | 0.00 | 0.00 | 85 | 1012.1 |
| 20260510140419 | 60 | 252 | 2.0 | 4.0 | 0.00 | 0.00 | 0.00 | 85 | 1012.1 |
| 20260510135847 | 60 | 252 | 2.0 | 5.0 | 0.00 | 0.00 | 0.00 | 85 | 1012.1 |
| 20260510135353 | 60 | 252 | 3.0 | 6.0 | 0.00 | 0.00 | 0.00 | 86 | 1012.0 |
| 20260510134856 | 60 | 254 | 3.0 | 6.0 | 0.00 | 0.00 | 0.00 | 87 | 1012.0 |
| 20260510134420 | 59 | 256 | 1.0 | 5.0 | 0.00 | 0.00 | 0.00 | 88 | 1011.9 |
| 20260510133846 | 59 | 257 | 1.0 | 5.0 | 0.00 | 0.00 | 0.00 | 90 | 1011.9 |
| 20260510133349 | 59 | 257 | 1.0 | 7.0 | 0.00 | 0.00 | 0.00 | 90 | 1011.9 |
| 20260510132855 | 58 | 257 | 0.0 | 7.0 | 0.00 | 0.00 | 0.00 | 91 | 1011.8 |
| 20260510132343 | 58 | 265 | 2.0 | 6.0 | 0.00 | 0.00 | 0.00 | 92 | 1011.9 |
| 20260510131847 | 57 | 267 | 2.0 | 6.0 | 0.00 | 0.00 | 0.00 | 92 | 1011.9 |
| 20260510131354 | 57 | 264 | 1.0 | 5.0 | 0.00 | 0.00 | 0.00 | 93 | 1011.8 |
| 20260510130900 | 56 | 265 | 2.0 | 6.0 | 0.00 | 0.00 | 0.00 | 93 | 1011.8 |
| 20260510130358 | 56 | 265 | 0.0 | 6.0 | 0.00 | 0.00 | 0.00 | 93 | 1011.8 |
| 20260510125849 | 56 | 261 | 1.0 | 6.0 | 0.00 | 0.00 | 0.00 | 94 | 1011.7 |
| 20260510125356 | 55 | 261 | 1.0 | 6.0 | 0.00 | 0.00 | 0.00 | 94 | 1011.8 |
| 20260510124900 | 55 | 261 | 2.0 | 7.0 | 0.00 | 0.00 | 0.00 | 94 | 1011.9 |
| 20260510124349 | 55 | 261 | 2.0 | 7.0 | 0.00 | 0.00 | 0.00 | 94 | 1012.0 |
| 20260510123856 | 55 | 260 | 2.0 | 5.0 | 0.00 | 0.00 | 0.00 | 94 | 1012.1 |
| 20260510123343 | 55 | 261 | 1.0 | 5.0 | 0.00 | 0.00 | 0.00 | 94 | 1012.1 |
| 20260510122849 | 55 | 259 | 1.0 | 7.0 | 0.00 | 0.00 | 0.00 | 94 | 1012.1 |
| 20260510122355 | 55 | 259 | 1.0 | 7.0 | 0.00 | 0.00 | 0.00 | 94 | 1012.1 |
| 20260510121842 | 54 | 244 | 2.0 | 6.0 | 0.00 | 0.00 | 0.00 | 95 | 1012.0 |
| 20260510121348 | 54 | 233 | 1.0 | 5.0 | 0.00 | 0.00 | 0.00 | 95 | 1012.0 |
| 20260510120854 | 54 | 228 | 1.0 | 4.0 | 0.00 | 0.00 | 0.00 | 95 | 1012.0 |
| 20260510120341 | 54 | 227 | 0.0 | 3.0 | 0.00 | 0.00 | 0.00 | 95 | 1012.0 |
| 20260510115850 | 54 | 227 | 0.0 | 3.0 | 0.00 | 0.00 | 0.00 | 95 | 1012.0 |
| 20260510115416 | 54 | 227 | 0.0 | 3.0 | 0.00 | 0.00 | 0.00 | 95 | 1012.0 |
| 20260510114857 | 54 | 225 | 0.0 | 3.0 | 0.00 | 0.00 | 0.00 | 95 | 1012.0 |
| 20260510114345 | 54 | 225 | 0.0 | 4.0 | 0.00 | 0.00 | 0.00 | 95 | 1011.7 |
| 20260510113853 | 54 | 225 | 0.0 | 3.0 | 0.00 | 0.00 | 0.00 | 95 | 1011.6 |
| 20260510113356 | 54 | 225 | 0.0 | 6.0 | 0.00 | 0.00 | 0.00 | 95 | 1011.3 |
| 20260510112847 | 54 | 225 | 1.0 | 6.0 | 0.00 | 0.00 | 0.00 | 95 | 1011.4 |
| 20260510112352 | 53 | 221 | 1.0 | 4.0 | 0.00 | 0.00 | 0.00 | 95 | 1011.4 |
| 20260510111858 | 53 | 221 | 1.0 | 5.0 | 0.00 | 0.00 | 0.00 | 95 | 1011.4 |
| 20260510111403 | 53 | 222 | 1.0 | 5.0 | 0.00 | 0.00 | 0.00 | 95 | 1011.6 |
| 20260510110847 | 53 | 222 | 1.0 | 4.0 | 0.00 | 0.00 | 0.00 | 95 | 1011.7 |
| 20260510110343 | 53 | 222 | 1.0 | 6.0 | 0.00 | 0.00 | 0.00 | 95 | 1011.6 |
| 20260510105854 | 53 | 222 | 3.0 | 6.0 | 0.00 | 0.00 | 0.00 | 95 | 1011.5 |
| 20260510105400 | 53 | 224 | 1.0 | 4.0 | 0.00 | 0.00 | 0.00 | 95 | 1011.5 |
| 20260510104844 | 53 | 223 | 0.0 | 2.0 | 0.00 | 0.00 | 0.00 | 95 | 1011.6 |
| 20260510104349 | 53 | 223 | 0.0 | 2.0 | 0.00 | 0.00 | 0.00 | 95 | 1011.6 |
| 20260510103855 | 53 | 223 | 0.0 | 2.0 | 0.00 | 0.00 | 0.00 | 95 | 1011.6 |
| 20260510103400 | 53 | 223 | 0.0 | 2.0 | 0.00 | 0.00 | 0.00 | 95 | 1011.7 |
| 20260510102845 | 52 | 223 | 0.0 | 2.0 | 0.00 | 0.00 | 0.00 | 95 | 1011.7 |
| 20260510102350 | 52 | 223 | 0.0 | 2.0 | 0.00 | 0.00 | 0.00 | 95 | 1011.7 |
| 20260510101852 | 52 | 223 | 0.0 | 3.0 | 0.00 | 0.00 | 0.00 | 95 | 1011.7 |
| 20260510101355 | 52 | 223 | 0.0 | 3.0 | 0.00 | 0.00 | 0.00 | 95 | 1011.7 |
| 20260510100900 | 52 | 223 | 0.0 | 3.0 | 0.00 | 0.00 | 0.00 | 95 | 1011.7 |
| 20260510100340 | 52 | 223 | 0.0 | 3.0 | 0.00 | 0.00 | 0.00 | 95 | 1011.8 |
| 20260510095850 | 52 | 223 | 0.0 | 1.0 | 0.00 | 0.00 | 0.00 | 95 | 1011.7 |
| 20260510095354 | 52 | 223 | 0.0 | 2.0 | 0.00 | 0.00 | 0.00 | 95 | 1011.7 |
| 20260510094857 | 52 | 223 | 0.0 | 4.0 | 0.00 | 0.00 | 0.00 | 95 | 1011.7 |
| 20260510094357 | 52 | 223 | 0.0 | 4.0 | 0.00 | 0.00 | 0.00 | 95 | 1011.6 |
| 20260510093901 | 52 | 223 | 0.0 | 1.0 | 0.00 | 0.00 | 0.00 | 95 | 1011.4 |
| 20260510093344 | 52 | 223 | 0.0 | 3.0 | 0.00 | 0.00 | 0.00 | 95 | 1011.6 |
| 20260510092850 | 52 | 223 | 1.0 | 3.0 | 0.00 | 0.00 | 0.00 | 95 | 1011.5 |
| 20260510092353 | 52 | 223 | 0.0 | 3.0 | 0.00 | 0.00 | 0.00 | 95 | 1011.3 |
| 20260510091857 | 52 | 223 | 0.0 | 4.0 | 0.00 | 0.00 | 0.00 | 95 | 1011.3 |
| 20260510091402 | 52 | 223 | 1.0 | 4.0 | 0.00 | 0.00 | 0.00 | 95 | 1011.1 |
| 20260510090843 | 52 | 222 | 0.0 | 4.0 | 0.00 | 0.00 | 0.00 | 95 | 1011.1 |
| 20260510090344 | 52 | 222 | 1.0 | 4.0 | 0.00 | 0.00 | 0.00 | 95 | 1011.0 |
| 20260510085918 | 52 | 221 | 0.0 | 1.0 | 0.00 | 0.00 | 0.00 | 95 | 1011.0 |
| 20260510085342 | 52 | 221 | 0.0 | 3.0 | 0.00 | 0.00 | 0.00 | 95 | 1010.8 |
| 20260510084846 | 52 | 221 | 0.0 | 6.0 | 0.00 | 0.00 | 0.00 | 95 | 1010.7 |
| 20260510084349 | 52 | 221 | 1.0 | 6.0 | 0.00 | 0.00 | 0.00 | 95 | 1010.7 |
| 20260510083853 | 52 | 220 | 1.0 | 3.0 | 0.00 | 0.00 | 0.00 | 95 | 1010.8 |
| 20260510083356 | 52 | 220 | 0.0 | 2.0 | 0.00 | 0.00 | 0.00 | 95 | 1010.8 |
| 20260510082901 | 53 | 220 | 0.0 | 2.0 | 0.00 | 0.00 | 0.00 | 95 | 1010.8 |
| 20260510082345 | 53 | 220 | 0.0 | 2.0 | 0.00 | 0.00 | 0.00 | 95 | 1010.8 |
| 20260510081851 | 53 | 220 | 0.0 | 2.0 | 0.00 | 0.00 | 0.00 | 95 | 1010.9 |
| 20260510081357 | 53 | 220 | 0.0 | 2.0 | 0.00 | 0.00 | 0.00 | 95 | 1010.9 |
| 20260510080905 | 53 | 220 | 0.0 | 3.0 | 0.00 | 0.00 | 0.00 | 95 | 1011.1 |
| 20260510080345 | 53 | 220 | 1.0 | 3.0 | 0.00 | 0.00 | 0.00 | 95 | 1011.0 |
| 20260510075858 | 53 | 220 | 0.0 | 4.0 | 0.00 | 0.00 | 0.00 | 95 | 1011.0 |
| 20260510075342 | 53 | 220 | 0.0 | 4.0 | 0.00 | 0.00 | 0.00 | 95 | 1010.9 |
| 20260510074847 | 53 | 220 | 0.0 | 1.0 | 0.00 | 0.00 | 0.00 | 95 | 1010.9 |
| 20260510074353 | 53 | 220 | 0.0 | 1.0 | 0.00 | 0.00 | 0.00 | 95 | 1010.9 |
| 20260510073900 | 53 | 220 | 0.0 | 3.0 | 0.00 | 0.00 | 0.00 | 95 | 1010.8 |
| 20260510073345 | 52 | 220 | 0.0 | 3.0 | 0.00 | 0.00 | 0.00 | 95 | 1010.8 |
| 20260510072850 | 53 | 220 | 0.0 | 4.0 | 0.00 | 0.00 | 0.00 | 95 | 1010.8 |
| 20260510072358 | 52 | 220 | 0.0 | 6.0 | 0.00 | 0.00 | 0.00 | 95 | 1010.7 |
| 20260510071844 | 52 | 220 | 1.0 | 6.0 | 0.00 | 0.00 | 0.00 | 95 | 1010.6 |
| 20260510071350 | 52 | 198 | 0.0 | 3.0 | 0.00 | 0.00 | 0.00 | 95 | 1010.4 |
| 20260510070917 | 52 | 198 | 0.0 | 3.0 | 0.00 | 0.00 | 0.00 | 95 | 1010.3 |
| 20260510070354 | 52 | 198 | 0.0 | 1.0 | 0.00 | 0.00 | 0.00 | 95 | 1010.3 |
| 20260510065847 | 52 | 198 | 0.0 | 3.0 | 0.00 | 0.00 | 0.00 | 94 | 1010.3 |
| 20260510065355 | 52 | 198 | 1.0 | 4.0 | 0.00 | 0.00 | 0.00 | 94 | 1010.3 |
| 20260510064858 | 52 | 198 | 0.0 | 2.0 | 0.00 | 0.00 | 0.00 | 94 | 1010.3 |
| 20260510064344 | 52 | 198 | 1.0 | 3.0 | 0.00 | 0.00 | 0.00 | 94 | 1010.5 |
| 20260510063909 | 52 | 198 | 1.0 | 4.0 | 0.00 | 0.00 | 0.00 | 94 | 1010.4 |
| 20260510063353 | 52 | 198 | 1.0 | 4.0 | 0.00 | 0.00 | 0.00 | 94 | 1010.6 |
| 20260510062858 | 52 | 196 | 0.0 | 3.0 | 0.00 | 0.00 | 0.00 | 94 | 1010.7 |
| 20260510062347 | 52 | 196 | 0.0 | 3.0 | 0.00 | 0.00 | 0.00 | 94 | 1010.8 |
| 20260510061910 | 52 | 196 | 0.0 | 2.0 | 0.00 | 0.00 | 0.00 | 94 | 1010.8 |
| 20260510061357 | 52 | 196 | 0.0 | 4.0 | 0.00 | 0.00 | 0.00 | 94 | 1010.8 |
| 20260510060842 | 52 | 196 | 0.0 | 4.0 | 0.00 | 0.00 | 0.00 | 94 | 1010.7 |
| 20260510060343 | 52 | 196 | 0.0 | 1.0 | 0.00 | 0.00 | 0.00 | 94 | 1010.7 |
| 20260510055858 | 52 | 196 | 0.0 | 0.0 | 0.00 | 0.00 | 0.00 | 94 | 1010.6 |
| 20260510055344 | 52 | 196 | 0.0 | 0.0 | 0.00 | 0.00 | 0.00 | 94 | 1010.5 |
| 20260510054850 | 52 | 196 | 0.0 | 0.0 | 0.00 | 0.00 | 0.00 | 94 | 1010.3 |
| 20260510054353 | 52 | 196 | 0.0 | 0.0 | 0.00 | 0.00 | 0.00 | 94 | 1010.3 |
| 20260510053920 | 52 | 196 | 0.0 | 0.0 | 0.00 | 0.00 | 0.00 | 94 | 1010.5 |
| 20260510053342 | 52 | 196 | 0.0 | 0.0 | 0.00 | 0.00 | 0.00 | 94 | 1010.6 |
| 20260510052848 | 52 | 196 | 0.0 | 0.0 | 0.00 | 0.00 | 0.00 | 94 | 1010.8 |
| 20260510052356 | 52 | 196 | 0.0 | 0.0 | 0.00 | 0.00 | 0.00 | 94 | 1010.7 |
| 20260510051859 | 52 | 196 | 0.0 | 0.0 | 0.00 | 0.00 | 0.00 | 94 | 1010.7 |
| 20260510051346 | 52 | 196 | 0.0 | 0.0 | 0.00 | 0.00 | 0.00 | 94 | 1010.7 |
| 20260510050853 | 52 | 196 | 0.0 | 0.0 | 0.00 | 0.00 | 0.00 | 94 | 1010.8 |
| 20260510050354 | 52 | 196 | 0.0 | 0.0 | 0.00 | 0.00 | 0.00 | 94 | 1010.8 |
| 20260510045845 | 52 | 196 | 0.0 | 0.0 | 0.00 | 0.00 | 0.00 | 94 | 1010.8 |
| 20260510045353 | 52 | 196 | 0.0 | 0.0 | 0.00 | 0.00 | 0.00 | 94 | 1010.8 |
| 20260510044858 | 52 | 196 | 0.0 | 0.0 | 0.00 | 0.00 | 0.00 | 94 | 1010.9 |
| 20260510044345 | 52 | 196 | 0.0 | 0.0 | 0.00 | 0.00 | 0.00 | 94 | 1010.9 |
| 20260510043853 | 52 | 196 | 0.0 | 0.0 | 0.00 | 0.00 | 0.00 | 94 | 1010.9 |
| 20260510043356 | 52 | 196 | 0.0 | 0.0 | 0.00 | 0.00 | 0.00 | 94 | 1010.9 |
| 20260510042923 | 52 | 196 | 0.0 | 0.0 | 0.00 | 0.00 | 0.00 | 94 | 1010.9 |
| 20260510042347 | 52 | 196 | 0.0 | 0.0 | 0.00 | 0.00 | 0.00 | 94 | 1010.9 |
| 20260510041851 | 52 | 196 | 0.0 | 0.0 | 0.00 | 0.00 | 0.00 | 94 | 1010.8 |
| 20260510041358 | 52 | 196 | 0.0 | 1.0 | 0.00 | 0.00 | 0.00 | 94 | 1010.8 |
| 20260510040905 | 52 | 196 | 0.0 | 3.0 | 0.00 | 0.00 | 0.00 | 94 | 1010.6 |
| 20260510040402 | 52 | 196 | 0.0 | 1.0 | 0.00 | 0.00 | 0.00 | 94 | 1010.7 |
| 20260510035847 | 52 | 196 | 0.0 | 2.0 | 0.00 | 0.00 | 0.00 | 94 | 1010.8 |
| 20260510035352 | 52 | 196 | 0.0 | 4.0 | 0.00 | 0.00 | 0.00 | 94 | 1010.9 |
| 20260510034857 | 52 | 196 | 1.0 | 4.0 | 0.00 | 0.00 | 0.00 | 94 | 1010.9 |
| 20260510034345 | 52 | 196 | 0.0 | 4.0 | 0.00 | 0.00 | 0.00 | 94 | 1010.8 |
| 20260510033851 | 52 | 196 | 1.0 | 4.0 | 0.00 | 0.00 | 0.00 | 94 | 1010.9 |
| 20260510033355 | 52 | 204 | 0.0 | 2.0 | 0.00 | 0.00 | 0.00 | 94 | 1011.0 |
| 20260510032901 | 53 | 204 | 0.0 | 2.0 | 0.00 | 0.00 | 0.00 | 94 | 1011.0 |
| 20260510032350 | 53 | 204 | 0.0 | 3.0 | 0.00 | 0.00 | 0.00 | 94 | 1011.0 |
| 20260510031855 | 53 | 204 | 1.0 | 4.0 | 0.00 | 0.00 | 0.00 | 94 | 1011.1 |
| 20260510031401 | 53 | 204 | 0.0 | 4.0 | 0.00 | 0.00 | 0.00 | 94 | 1011.2 |
| 20260510030907 | 53 | 205 | 0.0 | 2.0 | 0.00 | 0.00 | 0.00 | 94 | 1011.3 |
| 20260510030344 | 53 | 205 | 0.0 | 2.0 | 0.00 | 0.00 | 0.00 | 94 | 1011.3 |
| 20260510025856 | 53 | 205 | 0.0 | 4.0 | 0.00 | 0.00 | 0.00 | 94 | 1011.3 |
| 20260510025343 | 53 | 205 | 2.0 | 4.0 | 0.00 | 0.00 | 0.00 | 94 | 1011.4 |
| 20260510024847 | 53 | 217 | 0.0 | 3.0 | 0.00 | 0.00 | 0.00 | 94 | 1011.5 |
| 20260510024355 | 53 | 217 | 0.0 | 3.0 | 0.00 | 0.00 | 0.00 | 94 | 1011.5 |
| 20260510023903 | 53 | 217 | 0.0 | 2.0 | 0.00 | 0.00 | 0.00 | 94 | 1011.5 |
| 20260510023349 | 53 | 217 | 0.0 | 2.0 | 0.00 | 0.00 | 0.00 | 94 | 1011.7 |
| 20260510022855 | 53 | 217 | 0.0 | 0.0 | 0.00 | 0.00 | 0.00 | 94 | 1011.7 |
| 20260510022343 | 53 | 217 | 0.0 | 0.0 | 0.00 | 0.00 | 0.00 | 94 | 1011.8 |
| 20260510021847 | 53 | 217 | 0.0 | 0.0 | 0.00 | 0.00 | 0.00 | 94 | 1011.9 |
| 20260510021353 | 53 | 217 | 0.0 | 3.0 | 0.00 | 0.00 | 0.00 | 94 | 1011.8 |
| 20260510020859 | 53 | 217 | 0.0 | 3.0 | 0.00 | 0.00 | 0.00 | 94 | 1011.9 |
| 20260510020340 | 53 | 217 | 0.0 | 5.0 | 0.00 | 0.00 | 0.00 | 94 | 1012.0 |
| 20260510015854 | 53 | 217 | 2.0 | 7.0 | 0.00 | 0.00 | 0.00 | 94 | 1012.0 |
| 20260510015419 | 53 | 214 | 1.0 | 7.0 | 0.00 | 0.00 | 0.00 | 94 | 1012.0 |
| 20260510014904 | 54 | 228 | 2.0 | 8.0 | 0.00 | 0.00 | 0.00 | 94 | 1012.0 |
| 20260510014347 | 54 | 228 | 3.0 | 9.0 | 0.00 | 0.00 | 0.00 | 94 | 1011.9 |
| 20260510013853 | 54 | 244 | 2.0 | 7.0 | 0.00 | 0.00 | 0.00 | 95 | 1012.0 |
| 20260510013418 | 54 | 267 | 1.0 | 4.0 | 0.00 | 0.00 | 0.00 | 95 | 1012.0 |
| 20260510012842 | 54 | 267 | 0.0 | 6.0 | 0.00 | 0.00 | 0.00 | 95 | 1011.9 |
| 20260510012348 | 54 | 267 | 1.0 | 5.0 | 0.00 | 0.00 | 0.00 | 95 | 1011.9 |
| 20260510011853 | 54 | 281 | 1.0 | 5.0 | 0.00 | 0.00 | 0.00 | 95 | 1011.8 |
| 20260510011359 | 54 | 292 | 1.0 | 4.0 | 0.00 | 0.00 | 0.00 | 94 | 1011.8 |
| 20260510010848 | 53 | 293 | 0.0 | 3.0 | 0.00 | 0.00 | 0.00 | 95 | 1011.7 |
| 20260510010348 | 53 | 296 | 0.0 | 4.0 | 0.00 | 0.00 | 0.00 | 94 | 1011.7 |
| 20260510005857 | 53 | 5 | 1.0 | 3.0 | 0.00 | 0.00 | 0.00 | 94 | 1011.8 |
| 20260510005404 | 52 | 24 | 0.0 | 0.0 | 0.00 | 0.00 | 0.00 | 94 | 1011.8 |
| 20260510004849 | 52 | 24 | 0.0 | 0.0 | 0.00 | 0.00 | 0.00 | 94 | 1011.7 |
| 20260510004354 | 52 | 24 | 0.0 | 0.0 | 0.00 | 0.00 | 0.00 | 94 | 1011.7 |
| 20260510003902 | 52 | 24 | 0.0 | 0.0 | 0.00 | 0.00 | 0.00 | 94 | 1011.7 |
| 20260510003344 | 52 | 24 | 0.0 | 0.0 | 0.00 | 0.00 | 0.00 | 94 | 1011.8 |
| 20260510002909 | 52 | 24 | 0.0 | 0.0 | 0.00 | 0.00 | 0.00 | 94 | 1011.7 |
| 20260510002355 | 52 | 24 | 0.0 | 0.0 | 0.00 | 0.00 | 0.00 | 94 | 1011.7 |
| 20260510001921 | 52 | 24 | 0.0 | 0.0 | 0.00 | 0.00 | 0.00 | 94 | 1011.7 |
| 20260510001345 | 52 | 24 | 0.0 | 0.0 | 0.00 | 0.00 | 0.00 | 94 | 1011.8 |
| 20260510000852 | 52 | 24 | 0.0 | 0.0 | 0.00 | 0.00 | 0.00 | 94 | 1011.8 |
| 20260510000351 | 52 | 24 | 0.0 | 0.0 | 0.00 | 0.00 | 0.00 | 94 | 1012.0 |
| 20260509235844 | 52 | 24 | 0.0 | 0.0 | 0.00 | 0.00 | 0.00 | 94 | 1012.0 |
| 20260509235412 | 52 | 24 | 0.0 | 0.0 | 0.00 | 0.00 | 0.00 | 94 | 1012.0 |
| 20260509234857 | 52 | 24 | 0.0 | 1.0 | 0.00 | 0.00 | 0.00 | 94 | 1012.1 |
| 20260509234345 | 52 | 24 | 0.0 | 1.0 | 0.00 | 0.00 | 0.00 | 94 | 1012.2 |
| 20260509233853 | 52 | 24 | 0.0 | 0.0 | 0.00 | 0.00 | 0.00 | 94 | 1012.2 |
| 20260509233358 | 52 | 24 | 0.0 | 0.0 | 0.00 | 0.00 | 0.00 | 94 | 1012.1 |
| 20260509232844 | 52 | 24 | 0.0 | 1.0 | 0.00 | 0.00 | 0.00 | 94 | 1012.0 |
| 20260509232351 | 52 | 24 | 0.0 | 1.0 | 0.00 | 0.00 | 0.00 | 94 | 1012.0 |
| 20260509231915 | 52 | 24 | 0.0 | 0.0 | 0.00 | 0.00 | 0.00 | 94 | 1011.9 |
| 20260509231400 | 52 | 24 | 0.0 | 0.0 | 0.00 | 0.00 | 0.00 | 94 | 1011.9 |
| 20260509230847 | 52 | 24 | 0.0 | 3.0 | 0.00 | 0.00 | 0.00 | 93 | 1011.8 |
| 20260509230406 | 52 | 24 | 0.0 | 3.0 | 0.00 | 0.00 | 0.00 | 93 | 1011.7 |
| 20260509225855 | 52 | 22 | 0.0 | 2.0 | 0.00 | 0.00 | 0.00 | 93 | 1011.6 |
| 20260509225422 | 52 | 22 | 0.0 | 3.0 | 0.00 | 0.00 | 0.00 | 93 | 1011.8 |
| 20260509224846 | 52 | 22 | 0.0 | 3.0 | 0.00 | 0.00 | 0.00 | 93 | 1011.7 |
| 20260509224414 | 52 | 22 | 1.0 | 3.0 | 0.00 | 0.00 | 0.00 | 93 | 1011.6 |
| 20260509223859 | 52 | 23 | 0.0 | 1.0 | 0.00 | 0.00 | 0.00 | 93 | 1011.4 |
| 20260509223401 | 52 | 23 | 0.0 | 1.0 | 0.00 | 0.00 | 0.00 | 93 | 1011.3 |
| 20260509222846 | 52 | 23 | 0.0 | 1.0 | 0.00 | 0.00 | 0.00 | 93 | 1011.2 |
| 20260509222354 | 53 | 23 | 0.0 | 2.0 | 0.00 | 0.00 | 0.00 | 93 | 1011.2 |
| 20260509221856 | 53 | 23 | 0.0 | 2.0 | 0.00 | 0.00 | 0.00 | 93 | 1011.2 |
| 20260509221342 | 53 | 23 | 0.0 | 3.0 | 0.00 | 0.00 | 0.00 | 93 | 1011.1 |
| 20260509220909 | 53 | 23 | 1.0 | 3.0 | 0.00 | 0.00 | 0.00 | 93 | 1011.3 |
| 20260509220347 | 53 | 23 | 0.0 | 1.0 | 0.00 | 0.00 | 0.00 | 93 | 1011.4 |
| 20260509215901 | 53 | 23 | 0.0 | 4.0 | 0.00 | 0.00 | 0.00 | 93 | 1011.4 |
| 20260509215346 | 53 | 23 | 0.0 | 4.0 | 0.00 | 0.00 | 0.00 | 93 | 1011.4 |
| 20260509214845 | 53 | 132 | 1.0 | 4.0 | 0.00 | 0.00 | 0.00 | 93 | 1011.4 |
| 20260509214352 | 53 | 129 | 0.0 | 2.0 | 0.00 | 0.00 | 0.00 | 93 | 1011.0 |
| 20260509213900 | 53 | 129 | 0.0 | 4.0 | 0.00 | 0.00 | 0.00 | 93 | 1011.0 |
| 20260509213345 | 53 | 129 | 1.0 | 4.0 | 0.00 | 0.00 | 0.00 | 93 | 1011.1 |
| 20260509212853 | 53 | 130 | 1.0 | 3.0 | 0.00 | 0.00 | 0.00 | 92 | 1011.0 |
| 20260509212400 | 53 | 130 | 1.0 | 3.0 | 0.00 | 0.00 | 0.00 | 92 | 1011.1 |
| 20260509211846 | 53 | 130 | 0.0 | 3.0 | 0.00 | 0.00 | 0.00 | 92 | 1011.1 |
| 20260509211354 | 53 | 130 | 1.0 | 3.0 | 0.00 | 0.00 | 0.00 | 92 | 1011.1 |
| 20260509210841 | 54 | 130 | 0.0 | 4.0 | 0.00 | 0.00 | 0.00 | 92 | 1011.3 |
| 20260509210341 | 54 | 130 | 2.0 | 4.0 | 0.00 | 0.00 | 0.00 | 92 | 1011.1 |
| 20260509205853 | 54 | 130 | 1.0 | 3.0 | 0.00 | 0.00 | 0.00 | 92 | 1011.2 |
| 20260509205400 | 54 | 130 | 0.0 | 2.0 | 0.00 | 0.00 | 0.00 | 92 | 1011.1 |
| 20260509204843 | 54 | 129 | 0.0 | 2.0 | 0.00 | 0.00 | 0.00 | 92 | 1011.0 |
| 20260509204349 | 54 | 129 | 0.0 | 0.0 | 0.00 | 0.00 | 0.00 | 92 | 1010.9 |
| 20260509203854 | 54 | 129 | 0.0 | 1.0 | 0.00 | 0.00 | 0.00 | 91 | 1011.0 |
| 20260509203359 | 54 | 129 | 0.0 | 4.0 | 0.00 | 0.00 | 0.00 | 91 | 1011.0 |
| 20260509202843 | 54 | 129 | 1.0 | 4.0 | 0.00 | 0.00 | 0.00 | 91 | 1010.9 |
| 20260509202349 | 54 | 129 | 2.0 | 4.0 | 0.00 | 0.00 | 0.00 | 91 | 1011.0 |
| 20260509201852 | 54 | 130 | 1.0 | 4.0 | 0.00 | 0.00 | 0.00 | 90 | 1011.0 |
| 20260509201359 | 54 | 130 | 0.0 | 4.0 | 0.00 | 0.00 | 0.00 | 90 | 1011.2 |
| 20260509200842 | 54 | 130 | 2.0 | 5.0 | 0.00 | 0.00 | 0.00 | 90 | 1011.2 |
| 20260509200344 | 54 | 130 | 2.0 | 5.0 | 0.00 | 0.00 | 0.00 | 89 | 1011.2 |
| 20260509195914 | 54 | 126 | 2.0 | 6.0 | 0.00 | 0.00 | 0.00 | 89 | 1011.0 |
| 20260509195341 | 54 | 128 | 0.0 | 6.0 | 0.00 | 0.00 | 0.00 | 88 | 1011.0 |
| 20260509194843 | 54 | 112 | 0.0 | 5.0 | 0.00 | 0.00 | 0.00 | 88 | 1011.2 |
| 20260509194349 | 54 | 111 | 3.0 | 5.0 | 0.00 | 0.00 | 0.00 | 87 | 1011.1 |
| 20260509193856 | 55 | 113 | 2.0 | 4.0 | 0.00 | 0.00 | 0.00 | 87 | 1011.3 |
| 20260509193343 | 55 | 112 | 1.0 | 4.0 | 0.00 | 0.00 | 0.00 | 87 | 1011.3 |
| 20260509192910 | 55 | 113 | 1.0 | 4.0 | 0.00 | 0.00 | 0.00 | 87 | 1011.3 |
| 20260509192417 | 55 | 112 | 1.0 | 4.0 | 0.00 | 0.00 | 0.00 | 87 | 1011.4 |
| 20260509191856 | 54 | 111 | 2.0 | 4.0 | 0.00 | 0.00 | 0.00 | 88 | 1011.3 |
| 20260509191403 | 54 | 112 | 2.0 | 4.0 | 0.00 | 0.00 | 0.00 | 88 | 1011.2 |
| 20260509190907 | 54 | 109 | 1.0 | 5.0 | 0.00 | 0.00 | 0.00 | 88 | 1011.2 |
| 20260509190346 | 54 | 106 | 3.0 | 7.0 | 0.00 | 0.00 | 0.00 | 88 | 1011.3 |
| 20260509185859 | 54 | 125 | 2.0 | 7.0 | 0.00 | 0.00 | 0.00 | 88 | 1011.1 |
| 20260509185346 | 54 | 123 | 1.0 | 7.0 | 0.00 | 0.00 | 0.00 | 88 | 1011.3 |
| 20260509184849 | 54 | 117 | 2.0 | 7.0 | 0.00 | 0.00 | 0.00 | 87 | 1011.4 |
| 20260509184357 | 54 | 107 | 3.0 | 7.0 | 0.00 | 0.00 | 0.00 | 87 | 1011.4 |
| 20260509183843 | 54 | 63 | 2.0 | 7.0 | 0.00 | 0.00 | 0.00 | 87 | 1011.3 |
| 20260509183347 | 54 | 105 | 4.0 | 7.0 | 0.00 | 0.00 | 0.00 | 88 | 1011.0 |
| 20260509182852 | 54 | 103 | 5.0 | 7.0 | 0.00 | 0.00 | 0.00 | 87 | 1010.9 |
| 20260509182419 | 54 | 109 | 2.0 | 7.0 | 0.00 | 0.00 | 0.00 | 87 | 1011.2 |
| 20260509181843 | 54 | 99 | 3.0 | 7.0 | 0.00 | 0.00 | 0.00 | 86 | 1011.4 |
| 20260509181349 | 55 | 109 | 3.0 | 5.0 | 0.00 | 0.00 | 0.00 | 84 | 1011.9 |
| 20260509180856 | 55 | 108 | 0.0 | 4.0 | 0.00 | 0.00 | 0.00 | 84 | 1012.2 |
| 20260509180355 | 55 | 109 | 2.0 | 4.0 | 0.00 | 0.00 | 0.00 | 83 | 1012.3 |
| 20260509175845 | 55 | 106 | 0.0 | 5.0 | 0.00 | 0.00 | 0.00 | 83 | 1012.4 |
| 20260509175411 | 55 | 106 | 1.0 | 5.0 | 0.00 | 0.00 | 0.00 | 82 | 1012.5 |
| 20260509174853 | 55 | 104 | 2.0 | 6.0 | 0.00 | 0.00 | 0.00 | 81 | 1012.1 |
| 20260509174359 | 55 | 101 | 3.0 | 6.0 | 0.00 | 0.00 | 0.00 | 80 | 1012.1 |
| 20260509173847 | 55 | 126 | 1.0 | 7.0 | 0.00 | 0.00 | 0.00 | 80 | 1012.2 |
| 20260509173353 | 55 | 108 | 3.0 | 7.0 | 0.00 | 0.00 | 0.00 | 79 | 1012.1 |
| 20260509172858 | 55 | 94 | 3.0 | 8.0 | 0.00 | 0.00 | 0.00 | 78 | 1012.2 |
| 20260509172346 | 55 | 106 | 3.0 | 8.0 | 0.00 | 0.00 | 0.00 | 78 | 1012.1 |
| 20260509171910 | 55 | 57 | 3.0 | 7.0 | 0.00 | 0.00 | 0.00 | 78 | 1012.2 |
| 20260509171356 | 55 | 76 | 3.0 | 7.0 | 0.00 | 0.00 | 0.00 | 77 | 1012.2 |
| 20260509170844 | 55 | 111 | 3.0 | 5.0 | 0.00 | 0.00 | 0.00 | 76 | 1012.3 |
| 20260509170346 | 55 | 109 | 2.0 | 5.0 | 0.00 | 0.00 | 0.00 | 76 | 1012.3 |
| 20260509165917 | 55 | 106 | 3.0 | 6.0 | 0.00 | 0.00 | 0.00 | 75 | 1012.3 |
| 20260509165343 | 55 | 97 | 3.0 | 6.0 | 0.00 | 0.00 | 0.00 | 75 | 1012.5 |
| 20260509164847 | 55 | 126 | 2.0 | 5.0 | 0.00 | 0.00 | 0.00 | 75 | 1012.3 |
| 20260509164355 | 55 | 132 | 2.0 | 5.0 | 0.00 | 0.00 | 0.00 | 75 | 1012.4 |
| 20260509163841 | 55 | 148 | 2.0 | 5.0 | 0.00 | 0.00 | 0.00 | 75 | 1012.5 |
| 20260509163344 | 55 | 169 | 0.0 | 5.0 | 0.00 | 0.00 | 0.00 | 75 | 1012.6 |
| 20260509162849 | 54 | 169 | 2.0 | 4.0 | 0.00 | 0.00 | 0.00 | 76 | 1012.7 |
| 20260509162417 | 54 | 169 | 1.0 | 4.0 | 0.00 | 0.00 | 0.00 | 76 | 1012.7 |
| 20260509161920 | 54 | 188 | 0.0 | 4.0 | 0.00 | 0.00 | 0.00 | 76 | 1012.7 |
| 20260509161345 | 54 | 144 | 2.0 | 6.0 | 0.00 | 0.00 | 0.00 | 75 | 1012.6 |
| 20260509160852 | 54 | 158 | 2.0 | 6.0 | 0.00 | 0.00 | 0.00 | 76 | 1012.6 |
| 20260509160420 | 54 | 85 | 1.0 | 6.0 | 0.00 | 0.00 | 0.00 | 76 | 1012.7 |
| 20260509155845 | 54 | 142 | 3.0 | 6.0 | 0.00 | 0.00 | 0.00 | 76 | 1012.7 |
| 20260509155352 | 54 | 130 | 2.0 | 5.0 | 0.00 | 0.00 | 0.00 | 76 | 1012.7 |
| 20260509154857 | 53 | 135 | 1.0 | 5.0 | 0.00 | 0.00 | 0.00 | 76 | 1013.0 |
| 20260509154343 | 53 | 136 | 2.0 | 5.0 | 0.00 | 0.00 | 0.00 | 75 | 1012.9 |
| 20260509153910 | 53 | 133 | 2.0 | 5.0 | 0.00 | 0.00 | 0.00 | 74 | 1012.9 |